Flag for U.S.A. Weather past 2 weeks in Pierre, South Dakota, U.S.A.

Now
57 °F

Sunny.


Feels Like: 56 °F
Forecast: 53 / 79 °F
Wind: 6 mph from Southwest

Location: Pierre Regional Airport

Current Time: May 27, 2015 at 8:55:38 AM

Latest Report: May 27, 2015 at 7:53 AM


Visibility: 10 mi

Pressure: 29.97 "Hg

Humidity: 78%

Dew point: 50 °F

Location of PierreLocation

Historic Weather in Pierre — Graph

°F

Pierre temperature yesterday

Maximum temperature yesterday: 77 °F (at 4:53 PM)
Minimum temperature yesterday: 50 °F (at 4:53 AM)
Average temperature yesterday: 64 °F

Past Weeks' High & Low Weather Summary

 TemperatureHumidityPressure
High79 °F (May 13, 2:53 PM)100% (May 14, 1:53 PM)30.47 "Hg (May 14, 1:53 PM)
Low29 °F (May 19, 5:53 AM)24% (May 21, 5:53 PM)29.46 "Hg (May 17, 8:53 AM)
Average56 °F71%29.99 "Hg
* Reported May 12 6:53 AM — May 27 6:53 AM, Pierre, Weather by CustomWeather, © 2015

Note: Actual official high and low records may vary slightly from our data, if they occured in-between our weather recording intervals... More about our weather records

Advertising

Pierre weather history for previous 24 hours

 ConditionsComfort  
Time TempWeatherWind HumidityBarometerVisibility
6:53 AM
Wed, May 27
52 °FClear.No wind89%29.95 "Hg10 mi
5:53 AM49 °FClear.3 mph90%29.95 "Hg10 mi
4:53 AM50 °FClear.No wind86%29.93 "Hg10 mi
3:53 AM54 °FClear.No wind80%29.93 "Hg10 mi
2:53 AM56 °FClear.7 mph75%29.91 "Hg10 mi
1:53 AM59 °FClear.3 mph64%29.91 "Hg10 mi
12:53 AM54 °FClear.No wind77%29.92 "Hg10 mi
11:53 PM
Tue, May 26
54 °FClear.3 mph80%29.93 "Hg10 mi
10:53 PM62 °FClear.3 mph60%29.91 "Hg10 mi
9:53 PM66 °FSunny.No wind50%29.88 "Hg10 mi
8:53 PM70 °FSunny.5 mph41%29.86 "Hg10 mi
7:53 PM73 °FPassing clouds.12 mph43%29.85 "Hg10 mi
6:53 PM76 °FSunny.12 mph37%29.84 "Hg10 mi
5:53 PM77 °FSunny.15 mph39%29.84 "Hg10 mi
4:53 PM77 °FScattered clouds.14 mph39%29.85 "Hg10 mi
3:53 PM76 °FBroken clouds.12 mph42%29.86 "Hg10 mi
2:53 PM76 °FPassing clouds.12 mph42%29.87 "Hg10 mi
1:53 PM74 °FSunny.14 mph45%29.89 "Hg10 mi
12:53 PM72 °FSunny.13 mph49%29.89 "Hg10 mi
11:53 AM69 °FSunny.18 mph53%29.90 "Hg10 mi
10:53 AM67 °FSunny.13 mph57%29.90 "Hg10 mi
9:53 AM65 °FSunny.14 mph63%29.90 "Hg10 mi
8:53 AM59 °FSunny.12 mph81%29.91 "Hg10 mi
Weather by CustomWeather, © 2015

See weather overviewHow to use our weather pages